Location: Mizzole
(45.4833°N, 11.0500°E)
Time: 16:39:53
(UTC+00:00)

Cosmos 2123 Rocket - Pass Details

Date: 21 October 2019
Orbit: 960 x 993 km, 82.9° (Epoch: 18 November)

Event Time Altitude Azimuth Distance (km) Brightness Sun altitude
Rises 19:16:26 0° 194° (SSW) 3,688 7.0 -31.2°
Reaches altitude 10° 19:18:58 10° 197° (SSW) 2,740 6.3 -31.7°
Enters shadow 19:20:00 15° 199° (SSW) 2,363 6.0 -31.8°
Exits shadow 19:24:46 66° 253° (WSW) 1,072 4.2 -32.6°
Maximum altitude 19:25:14 68° 280° (W) 1,055 4.2 -32.7°
Drops below altitude 10° 19:31:29 10° 4° (N) 2,738 6.5 -33.7°
Sets 19:34:02 0° 7° (N) 3,685 7.2 -34.2°
